Location: Chicago
(41.7813°N, 87.6051°W)
Time: 05:23:52
(UTC-05:00)

ISS - Visible Passes

Search period start: 23 March 2017 00:00
Search period end: 02 April 2017 00:00
Orbit: 399 x 409 km, 51.6° (Epoch: 23 March)

Date Brightness Start Highest point End Pass type
(mag) Time Alt. Az. Time Alt. Az. Time Alt. Az.
23 Mar -2.1 04:40:53 29° ESE 04:40:53 29° ESE 04:42:40 10° ESE visible
23 Mar -1.8 06:13:43 10° W 06:15:27 14° SW 06:17:12 10° SSW visible
24 Mar -2.2 05:24:20 21° SSW 05:24:20 21° SSW 05:26:07 10° SSE visible
26 Mar -2.5 20:15:57 10° S 20:18:26 22° SE 20:18:26 22° SE visible
27 Mar -3.6 20:59:10 10° WSW 21:02:04 67° W 21:02:04 67° W visible
28 Mar -3.7 20:06:54 10° SW 20:10:04 53° SE 20:12:42 14° ENE visible
28 Mar -1.1 21:43:53 10° W 21:45:24 20° WNW 21:45:24 20° WNW visible
29 Mar -2.5 20:51:05 10° W 20:54:10 38° NNW 20:55:46 22° NNE visible
30 Mar -3.4 19:58:27 10° WSW 20:01:41 65° NNW 20:04:56 10° NE visible
30 Mar -1.2 21:36:15 10° WNW 21:38:36 18° NNW 21:38:36 18° NNW visible
31 Mar -1.6 20:43:17 10° WNW 20:45:59 23° NNW 20:48:35 11° NE visible
01 Apr -2.2 19:50:24 10° W 19:53:23 33° NNW 19:56:23 10° NE visible
01 Apr -1.2 21:28:34 10° NW 21:30:35 15° N 21:31:05 15° N visible
